Tracking 28794 objects as of 21-Apr-2024
HD Live streaming from Space Station
objects crossing your sky now

OBJECT B

Track OBJECT B now!
10-day predictions


NORAD ID: 56847
Int'l Code: 2023-081B
Perigee: 515.3 km
Apogee: 517.8 km
Inclination: 97.4 °
Period: 94.8 minutes
Semi major axis: 6887 km
RCS: Unknown
Launch date: June 7, 2023
Source: (TBD)
Launch site: Jiuquan Satellite Launch Center, China (JSC)
Your satellite tracking list
Your tracking list is empty




NASA's NSSDC Master Catalog

Two Line Element Set (TLE):
1 56847U 23081B   24112.83590913  .00035396  00000-0  16963-2 0  9995
2 56847  97.3801 186.0237 0001789 128.0562 232.0834 15.18828616 48545
Source of the keplerian elements: AFSPC